Lid_Strength_Index
4 6 8 7 6 6 7 7 8 7 5 6 7 6 6 4 4 5 5 6 6 5 4 3 2 2 1 2 2 1 1 2 1 2 2 2 2 1 0 -0 -1 -1 -1 -1
6 8 6 5 6 6 7 8 8 7 6 6 7 7 6 5 5 5 6 6 6 5 4 3 3 2 2 2 1 1 1 1 2 2 1 1 1 0 -0 -1 -1 -2 -2 -2
7 7 6 6 6 7 7 8 8 8 6 6 7 8 7 6 7 7 6 5 5 5 5 4 3 3 2 2 2 1 1 1 1 0 0 0 -0 0 1 0 0 -0 -1 -1
6 5 6 6 7 6 8 6 7 7 8 10 7 11 9 9 9 8 7 7 6 5 4 4 4 3 3 2 2 3 2 3 2 2 2 2 2 3 1 1 -0 -0 -1 -1
7 7 6 7 7 6 7 6 7 7 8 9 9 10 10 9 10 9 8 7 6 5 5 5 5 5 4 4 4 3 4 3 2 2 2 2 2 1 1 0 0 0 -0 -1
6 4 5 6 5 5 5 7 7 7 8 12 10 10 15 13 11 9 8 7 6 6 7 7 6 5 6 4 3 3 3 3 2 2 1 1 1 1 1 2 2 2 1 0
7 7 5 5 7 5 6 8 11 13 12 12 8 11 14 10 9 8 8 7 7 7 7 7 6 6 5 5 4 3 4 4 3 3 1 1 0 1 1 1 2 2 2 1
9 12 7 5 6 7 7 8 11 16 14 12 9 14 14 8 7 6 6 6 7 7 6 6 6 6 5 4 4 4 4 3 2 2 2 2 1 2 2 2 2 2 2 2
9 10 6 5 5 6 8 9 7 10 10 12 11 13 10 8 8 7 7 6 7 6 5 5 4 4 4 3 4 4 4 4 3 2 2 2 1 1 2 2 1 1 -0 -0
7 10 6 6 5 5 7 6 10 10 15 15 12 13 14 11 10 8 8 6 5 4 4 4 4 3 3 3 3 2 2 2 2 2 2 3 2 0 0 0 1 0 -0 -0
6 8 8 6 7 8 8 8 8 9 10 14 15 14 8 9 9 9 7 6 5 5 4 4 4 3 2 1 2 1 1 1 2 1 1 1 1 1 0 0 0 0 -0 -0
6 8 10 9 6 5 6 8 8 12 12 11 12 14 8 8 7 7 6 6 5 4 4 4 3 2 2 2 2 2 2 2 2 1 0 1 0 0 0 0 0 -0 -0 -0
6 8 12 10 7 7 8 7 7 8 9 11 13 15 8 8 7 6 6 5 5 4 4 3 3 3 3 3 3 3 2 2 2 1 1 1 1 1 1 0 -0 -0 -0 0
4 8 10 13 10 8 9 8 7 9 13 12 13 13 11 9 8 6 6 5 5 5 4 3 3 4 4 3 3 3 2 2 1 1 1 1 1 1 0 0 0 0 -0 0
7 10 9 8 8 7 8 8 9 10 10 13 12 13 11 8 7 6 5 5 5 4 4 4 4 4 4 3 3 2 2 1 2 2 1 1 0 0 0 0 0 0 0 0
6 10 8 9 8 8 9 9 9 9 10 10 11 12 7 6 5 6 5 5 5 4 4 4 4 4 4 4 3 2 2 2 2 2 2 1 1 1 1 0 0 1 1 0
7 9 10 12 9 9 12 10 9 9 9 9 12 10 7 7 7 6 5 5 5 5 5 5 4 4 4 4 2 3 2 2 2 2 2 2 1 1 1 1 1 2 2 1
8 9 10 13 11 17 10 7 7 9 8 8 8 7 6 6 5 5 4 4 5 5 5 4 4 4 3 3 2 2 2 2 2 2 2 2 2 3 3 3 3 3 3 3
6 8 11 14 14 11 11 8 8 9 11 7 8 6 5 5 5 5 4 4 4 4 4 4 3 3 3 3 3 2 2 2 3 3 4 3 3 4 4 5 5 5 4 5
6 7 11 12 15 17 11 7 5 6 13 7 6 6 6 5 8 7 4 4 4 4 3 3 3 3 3 3 1 2 3 3 4 4 4 4 3 4 5 4 5 5 5 5
10 9 12 13 14 12 7 6 5 13 13 5 5 5 5 6 6 4 3 4 4 3 3 3 4 3 3 2 2 4 5 5 4 3 3 4 3 4 4 5 5 5 5 4
10 12 12 11 13 16 5 6 9 7 6 5 4 4 5 4 4 4 4 4 4 4 4 4 3 3 3 4 4 5 5 4 3 4 4 4 3 4 4 5 5 5 4 4
11 9 11 10 11 6 5 5 4 4 5 4 4 4 3 4 4 4 5 4 4 4 4 4 4 4 4 4 4 6 5 4 4 5 4 4 4 4 4 4 4 4 4 5
7 5 8 8 7 6 6 4 3 3 4 3 3 3 3 4 4 4 4 4 4 4 4 4 5 5 5 4 5 5 5 5 5 5 6 5 5 4 4 3 4 5 6 6
6 6 7 9 6 6 5 5 4 3 3 3 3 3 3 4 4 4 4 4 4 4 4 4 5 5 5 5 5 4 4 4 5 6 6 5 5 4 4 6 7 6 7 7
6 7 8 9 5 6 6 4 3 3 3 3 3 3 4 3 4 4 4 4 3 4 3 4 4 4 4 5 5 4 4 4 5 6 5 5 4 4 4 5 6 9 9 9